Flag for U.S.A. Weather past 2 weeks in Sioux Falls, South Dakota, U.S.A.

Now
85 °F

Broken clouds.


Feels Like: 89 °F
Forecast: 65 / 85 °F
Wind: 8 mph from East

Location: Foss Field

Current Time: Aug 22, 2014 at 1:31:07 PM

Latest Report: Aug 22, 2014 at 12:56 PM


Visibility: 10 mi

Pressure: 29.95 "Hg

Humidity: 61%

Dew point: 70 °F

Location of Sioux FallsLocation

Historic Weather in Sioux Falls — Graph

°F

Sioux Falls temperature yesterday

Maximum temperature yesterday: 90 °F (at 2:56 PM)
Minimum temperature yesterday: 71 °F (at 11:56 PM)
Average temperature yesterday: 79 °F

Past Weeks' High & Low Weather Summary

 TemperatureHumidityPressure
High90 °F (Aug 21, 2:56 PM)97% (Aug 16, 1:56 AM)30.17 "Hg (Aug 16, 1:56 AM)
Low52 °F (Aug 12, 6:56 AM)32% (Aug 12, 5:56 PM)29.63 "Hg (Aug 21, 4:56 AM)
Average72 °F76%29.94 "Hg
* Reported Aug 7 12:56 PM — Aug 22 12:01 PM, Sioux Falls, Weather by CustomWeather, © 2014

Note: Actual official high and low records may vary slightly from our data, if they occured in-between our weather recording intervals... More about our weather records

Advertising

Sioux Falls weather history for previous 24 hours

 ConditionsComfort  
Time TempWeatherWind HumidityBarometerVisibility
12:01 PM
Aug 22
83 °FPartly sunny.8 mph65%29.98 "Hg10 mi
10:56 AM81 °FScattered clouds.8 mph69%29.94 "Hg10 mi
9:56 AM77 °FPassing clouds.10 mph82%29.94 "Hg10 mi
8:56 AM74 °FPassing clouds.6 mph85%29.94 "Hg9 mi
7:56 AM68 °FFog.3 mph93%29.92 "Hg6 mi
6:56 AM64 °FLight fog.N/A97%29.91 "Hg5 mi
5:56 AM65 °FLight fog.3 mph97%29.90 "Hg7 mi
4:56 AM64 °FLight fog.3 mph97%29.90 "Hg10 mi
3:56 AM64 °FClear.3 mph97%29.89 "Hg8 mi
2:56 AM68 °FClear.No wind93%29.87 "Hg10 mi
1:56 AM69 °FLight rain. Clear.No wind93%29.86 "Hg10 mi
12:56 AM69 °FFog.No wind93%29.87 "Hg6 mi
11:56 PM
Aug 21
71 °FPassing clouds.No wind90%29.87 "Hg10 mi
10:56 PM72 °FPassing clouds.6 mph91%29.87 "Hg10 mi
9:56 PM74 °FPassing clouds.5 mph85%29.86 "Hg10 mi
8:56 PM76 °FPassing clouds.6 mph80%29.84 "Hg10 mi
7:56 PM79 °FScattered clouds.6 mph74%29.83 "Hg10 mi
6:56 PM84 °FPartly sunny.9 mph61%29.81 "Hg10 mi
5:56 PM87 °FScattered clouds.10 mph57%29.80 "Hg10 mi
4:56 PM87 °FPartly sunny.9 mph59%29.79 "Hg10 mi
3:56 PM87 °FPartly sunny.10 mph65%29.77 "Hg10 mi
2:56 PM90 °FScattered clouds.10 mph61%29.75 "Hg10 mi
1:56 PM87 °FBroken clouds.7 mph69%29.75 "Hg10 mi
Weather by CustomWeather, © 2014

See weather overviewHow to use our weather pages